Tracking 20241 objects as of 28-Jan-2020
HD Live streaming from Space Station
objects crossing your sky now

CUBEBUG 2

Track CUBEBUG 2 now!
10-day predictions
CUBEBUG 2 is classified as:


NORAD ID: 39440
Int'l Code: 2013-066AA
Perigee: 592.0 km
Apogee: 706.6 km
Inclination: 97.6 °
Period: 97.6 minutes
Semi major axis: 7020 km
RCS: Unknown
Launch date: November 21, 2013
Source: Argentina (ARGN)
Launch site: Orenburg, Russia (OREN)

Uplink (MHz):
Downlink (MHz): 437.445
Beacon (MHz):
Mode: 1k2AFSK 9k6FSK
Call sign: CUBEB2-6
Status: Active

aabbcc
Your satellite tracking list
Your tracking list is empty




NASA's NSSDC Master Catalog

Two Line Element Set (TLE):
1 39440U 13066AA  20028.48066905  .00000162  00000-0  29338-4 0  9994
2 39440  97.6180  18.8850 0081619  78.2254 282.8098 14.75948721332986
Source of the keplerian elements: Caltech